Location: Unspecified
(36.1310°N, 0.0000°E)
Time: 11:20:23
(UTC+00:00)

NOAA 16 DEB - Visible Passes

Search period start: 04 April 2026 00:00
Search period end: 14 April 2026 00:00
Orbit: 792 x 823 km, 98.7° (Epoch: 29 March)

Date Brightness Start Highest point End Pass type
(mag) Time Alt. Az. Time Alt. Az. Time Alt. Az.
4 Apr ? 21:28:07 32° N 21:28:07 32° N 21:30:57 10° N visible
5 Apr ? 21:03:11 31° NNE 21:03:11 31° NNE 21:06:15 10° N visible
5 Apr ? 22:44:15 12° NW 22:44:15 12° NW 22:44:54 10° NW visible
6 Apr ? 20:38:14 24° NE 20:38:14 24° NE 20:41:15 10° N visible
6 Apr ? 22:19:19 20° NW 22:19:19 20° NW 22:21:13 10° NNW visible
7 Apr ? 20:13:17 16° NE 20:13:17 16° NE 20:15:48 10° NNE visible
7 Apr ? 21:54:22 30° NW 21:54:22 30° NW 21:57:05 10° NNW visible
8 Apr ? 21:29:25 38° N 21:29:25 38° N 21:32:38 10° NNW visible
9 Apr ? 21:04:27 36° NNE 21:04:27 36° NNE 21:07:54 10° N visible
9 Apr ? 22:45:32 13° WNW 22:45:32 13° WNW 22:46:28 10° NW visible
10 Apr ? 20:39:29 26° NE 20:39:29 26° NE 20:42:55 10° N visible
10 Apr ? 22:20:34 22° NW 22:20:34 22° NW 22:22:49 10° NW visible
11 Apr ? 20:14:31 17° ENE 20:14:31 17° ENE 20:17:29 10° NNE visible
11 Apr ? 21:55:35 33° NW 21:55:35 33° NW 21:58:39 10° NNW visible
12 Apr ? 21:30:36 44° N 21:30:36 44° N 21:34:11 10° NNW visible
13 Apr ? 21:05:37 40° NNE 21:05:37 40° NNE 21:09:28 10° N visible
13 Apr ? 22:46:42 14° WNW 22:46:42 14° WNW 22:47:55 10° NW visible
